Powrót do katalogu

DIRECTV 1

DBS 1

AktywnyŁącznośćGEO
NORAD 22930·PAYLOAD·🇺🇸 United States

Wystrzelony Dec 18, 1993 z Guiana Space Centre

Loading…

TLE

ŚwieżeSource: Space-Track

Epoka: Sep 13, 2026, 22:40 UTC

1 22930U 93078A   26256.94459618  .00000051  00000-0  00000-0 0  9996
2 22930  12.2664  33.1925 0011089 189.4198 165.6550  0.98983270126891

Śledź DIRECTV 1 w czasie rzeczywistym z AllMySat

Download on the App Store